D3121 Weather Reports


Display with metric or nautical units.
time (UTC)temp
F
wind
direction
speed
MPH
gust
MPH
rain 1hr
in
rain 24hr
in
rain mn
in
humidity
%
barometer
mb
20260508234116 49 338 1.0 3.0 0.00 0.00 0.00 60 1009.1
20260508233117 50 23 3.0 4.0 0.00 0.00 0.00 59 1009.0
20260508232117 50 338 2.0 3.0 0.00 0.00 0.00 57 1008.9
20260508231117 50 338 3.0 5.0 0.00 0.00 0.00 55 1008.8
20260508230117 51 23 1.0 2.0 0.00 0.00 0.00 53 1008.7
20260508225117 51 0 2.0 3.0 0.00 0.00 0.00 48 1008.5
20260508224117 51 293 1.0 1.0 0.00 0.00 0.00 43 1008.5
20260508223117 51 0 1.0 2.0 0.00 0.00 0.00 42 1008.1
20260508222117 51 0.0 0.0 0.00 0.00 0.00 43 1008.1
20260508221117 52 338 4.0 6.0 0.00 0.00 0.00 41 1008.2
20260508220117 52 338 5.0 8.0 0.00 0.00 0.00 43 1008.0
20260508215117 52 338 2.0 3.0 0.00 0.00 0.00 42 1008.0
20260508214117 52 338 3.0 5.0 0.00 0.00 0.00 41 1008.0
20260508213137 52 338 4.0 6.0 0.00 0.00 0.00 42 1007.8
20260508212117 52 338 1.0 2.0 0.00 0.00 0.00 41 1007.9
20260508211118 53 338 2.0 3.0 0.00 0.00 0.00 39 1007.7
20260508210117 53 270 3.0 8.0 0.00 0.00 0.00 40 1007.6
20260508205117 52 338 5.0 6.0 0.00 0.00 0.00 41 1007.6
20260508204137 51 338 3.0 6.0 0.00 0.00 0.00 42 1007.6
20260508203117 51 270 3.0 8.0 0.00 0.00 0.00 43 1007.5
20260508202157 51 0 6.0 7.0 0.00 0.00 0.00 43 1007.4
20260508201117 51 338 4.0 6.0 0.00 0.00 0.00 43 1007.4
20260508200117 51 315 2.0 7.0 0.00 0.00 0.00 44 1007.5
20260508195117 51 293 1.0 3.0 0.00 0.00 0.00 44 1007.5
20260508194137 51 338 5.0 8.0 0.00 0.00 0.00 44 1007.5
20260508193137 50 0 2.0 3.0 0.00 0.00 0.00 45 1007.5
20260508192117 50 338 9.0 10.0 0.00 0.00 0.00 45 1007.6
20260508191137 51 338 6.0 8.0 0.00 0.00 0.00 43 1007.6
20260508190117 52 338 2.0 4.0 0.00 0.00 0.00 42 1007.6
20260508185117 52 248 2.0 5.0 0.00 0.00 0.00 42 1007.7
20260508184117 52 270 1.0 2.0 0.00 0.00 0.00 44 1007.7
20260508183117 51 45 3.0 4.0 0.00 0.00 0.00 43 1007.7
20260508182117 50 338 7.0 9.0 0.00 0.00 0.00 45 1007.7
20260508181116 50 338 10.0 14.0 0.00 0.00 0.00 45 1007.6
20260508180116 50 338 6.0 9.0 0.00 0.00 0.00 43 1007.8
20260508175117 50 338 5.0 7.0 0.00 0.00 0.00 45 1008.0
20260508174117 50 338 4.0 5.0 0.00 0.00 0.00 44 1007.9
20260508173117 49 315 3.0 6.0 0.00 0.00 0.00 45 1007.9
20260508172117 50 338 4.0 6.0 0.00 0.00 0.00 46 1008.1
20260508171137 50 338 3.0 5.0 0.00 0.00 0.00 46 1008.2
20260508170117 50 315 5.0 9.0 0.00 0.00 0.00 44 1008.2
20260508165117 50 113 2.0 4.0 0.00 0.00 0.00 44 1008.2
20260508164117 50 338 7.0 13.0 0.00 0.00 0.00 45 1008.1
20260508163116 50 338 5.0 9.0 0.00 0.00 0.00 44 1008.1
20260508162117 50 180 2.0 6.0 0.00 0.00 0.00 45 1008.0
20260508161116 50 338 1.0 2.0 0.00 0.00 0.00 43 1007.8
20260508160117 51 338 11.0 15.0 0.00 0.00 0.00 43 1007.8
20260508155116 50 225 6.0 12.0 0.00 0.00 0.00 42 1007.7
20260508154116 50 0 6.0 12.0 0.00 0.00 0.00 41 1007.8
20260508153116 51 225 2.0 3.0 0.00 0.00 0.00 41 1007.8
20260508152116 50 0 6.0 9.0 0.00 0.00 0.00 40 1007.8
20260508151116 50 338 5.0 10.0 0.00 0.00 0.00 41 1007.9
20260508150137 50 0 5.0 9.0 0.00 0.00 0.00 42 1008.0
20260508145116 50 0 5.0 9.0 0.00 0.00 0.00 40 1008.0
20260508144116 50 0 6.0 11.0 0.00 0.00 0.00 38 1008.1
20260508143116 50 0 4.0 7.0 0.00 0.00 0.00 39 1008.3
20260508142117 50 270 4.0 8.0 0.00 0.00 0.00 43 1008.3
20260508141136 50 338 6.0 8.0 0.00 0.00 0.00 43 1008.2
20260508140116 49 248 4.0 6.0 0.00 0.00 0.00 45 1008.5
20260508135116 49 293 5.0 10.0 0.00 0.00 0.00 47 1008.6
20260508134116 49 338 3.0 7.0 0.00 0.00 0.00 47 1008.5
20260508133117 49 338 2.0 4.0 0.00 0.00 0.00 51 1008.6
20260508132137 48 180 2.0 4.0 0.00 0.00 0.00 51 1008.6
20260508131116 48 338 4.0 7.0 0.00 0.00 0.00 51 1008.7
20260508130117 48 338 4.0 5.0 0.00 0.00 0.00 52 1008.6
20260508125116 48 158 2.0 5.0 0.00 0.00 0.00 53 1008.7
20260508124117 48 248 1.0 3.0 0.00 0.00 0.00 57 1008.9
20260508123116 47 338 3.0 4.0 0.00 0.00 0.00 59 1008.7
20260508122116 46 90 2.0 4.0 0.00 0.00 0.00 61 1008.7
20260508121117 46 90 1.0 2.0 0.00 0.00 0.00 64 1008.7
20260508120117 45 225 1.0 2.0 0.00 0.00 0.00 65 1008.7
20260508115137 44 248 1.0 2.0 0.00 0.00 0.00 65 1008.6
20260508114116 43 270 1.0 2.0 0.00 0.00 0.00 67 1008.5
20260508113116 43 338 1.0 1.0 0.00 0.00 0.00 68 1008.5
20260508112117 43 338 2.0 3.0 0.00 0.00 0.00 69 1008.5
20260508111117 43 90 1.0 2.0 0.00 0.00 0.00 68 1008.4
20260508110116 43 0.0 0.0 0.00 0.00 0.00 71 1008.4
20260508105116 42 0.0 0.0 0.00 0.00 0.00 72 1008.1
20260508104117 40 0.0 0.0 0.00 0.00 0.00 76 1008.0
20260508103116 38 0.0 0.0 0.00 0.00 0.00 78 1008.0
20260508102117 37 338 1.0 2.0 0.00 0.00 0.00 80 1007.8
20260508101116 36 0.0 0.0 0.00 0.00 0.00 82 1007.7
20260508100117 35 0.0 0.0 0.00 0.00 0.00 84 1007.5
20260508095116 35 0.0 0.0 0.00 0.00 0.00 84 1007.4
20260508094157 35 0.0 0.0 0.00 0.00 0.00 84 1007.3
20260508093137 35 0.0 0.0 0.00 0.00 0.00 84 1007.2
20260508092116 35 0.0 1.0 0.00 0.00 0.00 85 1007.1
20260508091116 35 0.0 1.0 0.00 0.00 0.00 84 1007.1
20260508090116 35 0.0 1.0 0.00 0.00 0.00 84 1007.3
20260508085116 35 0.0 1.0 0.00 0.00 0.00 83 1007.3
20260508084116 35 0.0 0.0 0.00 0.00 0.00 85 1007.2
20260508083116 35 0.0 0.0 0.00 0.00 0.00 87 1007.2
20260508082116 34 0.0 0.0 0.00 0.00 0.00 88 1007.1
20260508081117 34 0.0 0.0 0.00 0.00 0.00 88 1006.9
20260508080116 35 0.0 0.0 0.00 0.00 0.00 87 1006.8
20260508075116 35 0.0 0.0 0.00 0.00 0.00 86 1006.6
20260508074116 35 0.0 0.0 0.00 0.00 0.00 85 1006.6
20260508073116 35 0.0 0.0 0.00 0.00 0.00 85 1006.6
20260508072116 36 0.0 0.0 0.00 0.00 0.00 85 1006.6
20260508071116 36 0.0 0.0 0.00 0.00 0.00 85 1006.9
20260508070117 36 0.0 0.0 0.00 0.00 0.00 84 1006.8
20260508065118 36 0.0 0.0 0.00 0.00 0.00 85 1006.8
20260508064137 37 0.0 0.0 0.00 0.00 0.00 84 1006.9
20260508063116 37 0.0 0.0 0.00 0.00 0.00 83 1006.8
20260508062116 37 0.0 0.0 0.00 0.00 0.00 82 1006.8
20260508061116 38 0.0 0.0 0.00 0.00 0.00 83 1006.8
20260508060116 38 0.0 0.0 0.00 0.00 0.00 84 1006.7
20260508055136 38 0.0 0.0 0.00 0.00 0.00 84 1006.9
20260508054117 38 0.0 0.0 0.00 0.00 0.00 84 1007.2
20260508053116 38 0.0 0.0 0.00 0.00 0.00 84 1007.2
20260508052116 38 0.0 0.0 0.00 0.00 0.00 84 1007.3
20260508051117 38 0.0 0.0 0.00 0.00 0.00 81 1007.4
20260508050137 38 0.0 0.0 0.00 0.00 0.00 80 1007.3
20260508045116 38 0.0 0.0 0.00 0.00 0.00 80 1007.3
20260508044116 39 0.0 0.0 0.00 0.00 0.00 79 1007.5
20260508043116 39 0.0 0.0 0.00 0.00 0.00 78 1007.5
20260508042137 39 0.0 0.0 0.00 0.00 0.00 76 1007.5
20260508041116 39 0.0 0.0 0.00 0.01 0.00 77 1007.5
20260508040116 40 0.0 0.0 0.00 0.01 0.00 74 1007.5
20260508035117 40 0.0 0.0 0.00 0.01 0.01 75 1007.4
20260508034117 40 0.0 0.0 0.00 0.01 0.01 75 1007.4
20260508033117 41 0.0 0.0 0.00 0.01 0.01 73 1007.6
20260508032117 41 0.0 0.0 0.00 0.01 0.01 72 1007.5
20260508031117 41 0.0 1.0 0.00 0.01 0.01 72 1007.5
20260508030117 42 0.0 0.0 0.00 0.01 0.01 70 1007.5
20260508025117 43 0.0 0.0 0.00 0.02 0.01 67 1007.5
20260508024137 43 0.0 1.0 0.00 0.02 0.01 63 1007.6
20260508023117 44 293 1.0 2.0 0.00 0.02 0.01 63 1007.5
20260508022117 45 0.0 0.0 0.00 0.02 0.01 59 1007.5
20260508021117 45 0.0 0.0 0.00 0.03 0.01 58 1007.4
20260508020117 46 0.0 0.0 0.00 0.03 0.01 56 1007.3
20260508015118 47 315 1.0 1.0 0.00 0.03 0.01 54 1007.3
20260508014117 47 338 1.0 3.0 0.00 0.04 0.01 51 1007.0
20260508013117 47 0.0 0.0 0.00 0.04 0.01 50 1006.9
20260508012117 48 248 3.0 6.0 0.00 0.05 0.01 50 1006.8
20260508011117 48 0.0 1.0 0.00 0.06 0.01 49 1006.8
20260508010117 48 293 1.0 3.0 0.00 0.07 0.01 48 1006.6
20260508005137 49 315 1.0 3.0 0.00 0.07 0.01 47 1006.5
20260508004117 49 0.0 2.0 0.00 0.07 0.01 46 1006.5
20260508003117 49 0.0 1.0 0.00 0.08 0.01 46 1006.2
20260508002118 50 315 1.0 2.0 0.00 0.09 0.01 46 1006.0
20260508001137 50 158 1.0 2.0 0.00 0.09 0.01 43 1005.9
20260508000138 51 293 1.0 2.0 0.00 0.09 0.01 44 1006.0
20260507235117 51 0.0 1.0 0.00 0.09 0.01 42 1005.7